Weather in Yantarny

Russia / Kaliningrad Oblast     54°51′59″N   19°56′18″E
temp.,
°C
wind,
m/s
gust,
m/s
humid.,
%
clouds,
%
prec.,
mm/h
press.,
hPa
HPBL,
m
28 november, sun
sun2823:00+3s1288100 0.1 996280
02:00+4wsw5689100 0.6 996388
05:00+4ssw567990 0.1 997439
08:00+2s4581100 0.1 997222
11:00+3ssw468455 0.0 998510
14:00+4ssw458178 0.0 999592
17:00+3se3385100 0.0 998240
20:00+1e3590100 0.0 999220
29 november, mon
mon2923:00+1ene4793100 0.0 998221
02:00+1ene61190100 0.1 996479
05:00+2ne81398100 3.0 993635
08:00+1ne91499100 11.4 992714
11:00+1ne611100100 5.8 992593
14:00+1nne610100100 8.3 991516
17:00+2n61099100 1.5 992617
20:00+2n81399100 2.9 993845
30 november, tue
tue3023:00+2nnw101496100 1.8 994983
02:00+3nnw121684100 2.8 9961197
05:00+3nw111465100 0.3 9971134
08:00+2wnw91262100 0.4 998926
11:00+2wnw7961100 0.0 997833
14:00+2wsw7972100 0.1 995793
17:00+1s6798100 0.6 991538
20:000se5796100 1.7 989441
1 december, wed
wed123:00−1ene469684 0.1 990242
02:00−1ene469499 0.1 994294
05:00−1e128898 0.0 997143
08:000sse3486100 0.0 997186
11:00+1sse6882100 0.0 996389
14:000sse81193100 0.3 993544
17:00+2s91498100 3.6 987610
20:00+5sw121897100 8.1 984977
2 december, thu
thu223:00+7sw142085100 0.2 9821236
02:00+7sw162384100 0.5 9811684
05:00+6wsw152282100 0.8 9821640
08:00+5w121685100 1.4 9851350
11:00+5wnw8116483 0.3 9891069
14:00+5nw4563100 0.4 990607
17:00+2s1198100 1.1 992317
20:00+2s3499100 5.1 991338